TIANWANG 1B (TW-1B)
1 40927U 15051C   19142.50085672  .00008919  00000-0  14090-3 0  9998
2 40927  97.1406 188.1378 0010325 118.8993 348.8360 15.53658653205799
TIANWANG 1A (TW-1A)
1 40928U 15051D   19142.47840718  .00002614  00000-0  66082-4 0  9990
2 40928  97.1467 174.3839 0011501 162.7347 307.1533 15.40621448204982
LAPAN A2
1 40931U 15052B   19139.96777004 -.00000245  00000-0 -12379-3 0  9991
2 40931   5.9965 268.5989 0015469 119.3214 240.8665 14.76593972196860
LQSAT
1 40958U 15057A   19142.59716799  .00000006  00000-0  86797-5 0  9992
2 40958  97.9000 212.5228 0017406 332.4662  27.5622 14.73078266194810
CHUBUSAT 2
1 41338U 16012B   19141.87876066 +.00000278 +00000-0 +14849-4 0  9990
2 41338 031.0037 321.5235 0013822 188.4148 171.6257 15.00142665178731
CHUBUSAT 3
1 41339U 16012C   19142.11762891  .00000322  00000-0  18207-4 0  9991
2 41339  31.0113 318.1330 0013378 197.5454 162.4728 15.00319418178768
OUFTI-1
1 41458U 16025C   19142.21088947  .00000980  00000-0  53518-4 0  9995
2 41458  98.1010 227.6603 0168291  89.5543 272.4964 15.05741420168446
E-STAR-2
1 41459U 16025D   19142.28731227  .00001502  00000-0  80017-4 0  9994
2 41459  98.1020 227.4199 0169821  90.5717 271.4963 15.05394180168424
AAUSAT 4
1 41460U 16025E   19142.29692060  .00002485  00000-0  12714-3 0  9997
2 41460  98.0971 228.6028 0159593  83.6994 278.2377 15.07250090168549
NUSAT 1
1 41557U 16033B   19142.52473331  .00000929  00000-0  37613-4 0  9994
2 41557  97.4173 230.1841 0014837  39.9457 320.2870 15.27148681165944
BEESAT 4
1 41619U 16040W   19142.11884934  .00001078  00000-0  48659-4 0  9999
2 41619  97.3694 204.8539 0012991 117.2863 242.9699 15.23053329149662
PRATHAM
1 41783U 16059A   19141.76317710 +.00000051 +00000-0 +19045-4 0  9991
2 41783 098.0694 201.9584 0034938 111.2497 249.2442 14.62991251141465
ALSAT 1N
1 41789U 16059G   19142.39066380  .00000077  00000-0  23607-4 0  9998
2 41789  98.0722 204.5070 0029819  99.3812 261.0764 14.64239077141654
NAYIF 1
1 42017U 17008BX  19142.40992689  .00001016  00000-0  43010-4 0  9994
2 42017  97.4045 209.7833 0004525 262.6791  97.3932 15.25449674125767
MAX VALIER SAT
1 42778U 17036P   19141.71816555  .00000747  00000-0  35733-4 0  9992
2 42778  97.3565 199.9976 0011320 329.9514  30.1071 15.21964348105983
